Location: Joffre
(52.3362°N, 113.5373°W)
Time: 12:54:20
(UTC+00:00)

Envisat - Pass Details

Date: 01 December 2021
Orbit: 764 x 766 km, 98.2° (Epoch: 23 January)

Event Time Altitude Azimuth Distance (km) Brightness Sun altitude
Rises 00:19:53 0° 190° (S) 3,222 6.8 -8.0°
Reaches altitude 10° 00:22:22 10° 199° (SSW) 2,300 6.2 -8.4°
Maximum altitude 00:27:00 35° 265° (W) 1,224 4.8 -9.0°
Drops below altitude 10° 00:31:40 10° 331° (NNW) 2,317 5.6 -9.7°
Sets 00:34:11 0° 340° (NNW) 3,248 6.2 -10.0°
